Location: Arpaise
(41.0333°N, 14.7333°E)
Time: 16:43:56
(UTC+00:00)

Cosmos 2237 Rocket - Pass Details

Date: 05 July 2020
Orbit: 834 x 850 km, 71.0° (Epoch: 10 August)

Event Time Altitude Azimuth Distance (km) Brightness Sun altitude
Exits shadow 22:14:36 27° 241° (WSW) 1,590 3.4 -25.2°
Maximum altitude 22:17:23 47° 299° (WNW) 1,119 3.0 -25.3°
Drops below altitude 10° 22:22:53 10° 13° (NNE) 2,484 5.5 -25.5°
Sets 22:25:27 0° 19° (NNE) 3,424 6.3 -25.6°
